EW4757 Weather Reports


time (UTC)temp
C
wind
direction
speed
KPH
gust
KPH
rain 1hr
cm
rain 24hr
cm
rain mn
cm
humidity
%
barometer
mb
20260504151056 21 288 0.0 6.4 0.00 0.00 0.00 35 1013.0
20260504150555 20 302 1.6 8.0 0.00 0.00 0.00 34 1013.0
20260504141047 18 315 1.6 4.8 0.00 0.00 0.00 37 1013.3
20260504140546 18 331 0.0 3.2 0.00 0.00 0.00 43 1013.2
20260504130530 15 308 0.0 3.2 0.00 0.00 0.00 48 1013.7
20260504110507 8 314 0.0 0.0 0.00 0.00 0.00 68 1014.6
20260504100541 9 314 0.0 1.6 0.00 0.00 0.00 63 1014.2
20260504090136 10 188 0.0 1.6 0.00 0.00 0.00 61 1014.5
20260504081533 9 188 0.0 0.0 0.00 0.00 0.00 69 1014.6
20260504081033 8 188 0.0 0.0 0.00 0.00 0.00 66 1014.5
20260504080535 8 188 0.0 0.0 0.00 0.00 0.00 66 1014.4
20260504050512 6 24 0.0 0.0 0.00 0.00 0.00 67 1015.3
20260504050012 6 24 0.0 0.0 0.00 0.00 0.00 65 1015.3
20260504045510 7 24 0.0 0.0 0.00 0.00 0.00 65 1015.2
20260504045010 6 24 0.0 0.0 0.00 0.00 0.00 65 1015.3
20260504044509 6 24 0.0 0.0 0.00 0.00 0.00 65 1015.3
20260504044010 6 24 0.0 0.0 0.00 0.00 0.00 65 1015.3
20260504043511 7 24 0.0 0.0 0.00 0.00 0.00 66 1015.1
20260504043012 6 24 0.0 0.0 0.00 0.00 0.00 66 1015.2
20260504042507 6 24 0.0 0.0 0.00 0.00 0.00 65 1015.1
20260504042006 6 24 0.0 0.0 0.00 0.00 0.00 64 1015.0
20260504041506 6 24 0.0 0.0 0.00 0.00 0.00 64 1015.0
20260504041004 7 24 0.0 0.0 0.00 0.00 0.00 64 1015.0
20260504040503 7 24 0.0 0.0 0.00 0.00 0.00 63 1015.0
20260504040006 7 24 0.0 0.0 0.00 0.00 0.00 62 1015.0
20260504035503 7 24 0.0 0.0 0.00 0.00 0.00 62 1015.0
20260504035002 7 24 0.0 0.0 0.00 0.00 0.00 63 1015.0
20260504034501 7 24 0.0 0.0 0.00 0.00 0.00 61 1015.1
20260504034102 7 24 0.0 0.0 0.00 0.00 0.00 62 1015.0
20260504033600 7 24 0.0 0.0 0.00 0.00 0.00 60 1015.0
20260504033105 8 24 0.0 0.0 0.00 0.00 0.00 60 1015.0
20260504032600 8 24 0.0 0.0 0.00 0.00 0.00 61 1014.9
20260504032102 8 24 0.0 0.0 0.00 0.00 0.00 62 1014.9
20260504031605 8 24 0.0 0.0 0.00 0.00 0.00 58 1014.9
20260504031103 8 24 0.0 0.0 0.00 0.00 0.00 59 1014.8
20260504030603 8 24 0.0 0.0 0.00 0.00 0.00 62 1014.7
20260504030100 8 24 0.0 0.0 0.00 0.00 0.00 59 1014.7
20260504025600 8 24 0.0 0.0 0.00 0.00 0.00 59 1014.7
20260504025102 8 24 0.0 0.0 0.00 0.00 0.00 58 1014.7
20260504024600 8 24 0.0 0.0 0.00 0.00 0.00 59 1014.6
20260504024101 8 24 0.0 0.0 0.00 0.00 0.00 59 1014.6
20260504023558 8 24 0.0 0.0 0.00 0.00 0.00 58 1014.5
20260504023059 8 24 0.0 0.0 0.00 0.00 0.00 59 1014.4
20260504022558 8 24 0.0 0.0 0.00 0.00 0.00 59 1014.5
20260504022059 8 24 0.0 0.0 0.00 0.00 0.00 59 1014.4
20260504021601 8 24 0.0 0.0 0.00 0.00 0.00 57 1014.4
20260504021100 8 24 0.0 0.0 0.00 0.00 0.00 58 1014.4
20260504020557 8 24 0.0 0.0 0.00 0.00 0.00 56 1014.4
20260504020114 8 24 0.0 0.0 0.00 0.00 0.00 57 1014.4
20260504015557 8 24 0.0 0.0 0.00 0.00 0.00 55 1014.3
20260504015058 8 24 0.0 0.0 0.00 0.00 0.00 55 1014.3
20260504014604 8 24 0.0 0.0 0.00 0.00 0.00 55 1014.2
20260504014056 9 24 0.0 0.0 0.00 0.00 0.00 52 1014.2
20260504013556 9 24 0.0 0.0 0.00 0.00 0.00 52 1014.2
20260504013105 10 24 0.0 0.0 0.00 0.00 0.00 53 1014.2
20260504012659 10 24 0.0 0.0 0.00 0.00 0.00 52 1014.1
20260504012056 10 24 0.0 0.0 0.00 0.00 0.00 51 1014.1
20260504011556 10 24 0.0 0.0 0.00 0.00 0.00 51 1014.1
20260504011058 10 24 0.0 0.0 0.00 0.00 0.00 51 1014.1
20260504010555 10 24 0.0 0.0 0.00 0.00 0.00 51 1014.1
20260504010055 10 24 0.0 0.0 0.00 0.00 0.00 50 1014.2
20260504005555 10 24 0.0 0.0 0.00 0.00 0.00 50 1014.1
20260504005057 10 24 0.0 0.0 0.00 0.00 0.00 49 1014.0
20260504004557 11 24 0.0 0.0 0.00 0.00 0.00 47 1013.9
20260504004054 11 24 0.0 0.0 0.00 0.00 0.00 45 1013.9
20260504003554 11 24 0.0 0.0 0.00 0.00 0.00 43 1013.8
20260504003057 11 24 0.0 0.0 0.00 0.00 0.00 41 1013.8
20260504002558 11 24 0.0 0.0 0.00 0.00 0.00 42 1013.9
20260504002054 12 24 0.0 0.0 0.00 0.00 0.00 40 1013.9
20260504001558 12 24 0.0 0.0 0.00 0.00 0.00 39 1013.8
20260504001053 13 24 0.0 0.0 0.00 0.00 0.00 39 1013.8
20260504000552 13 24 0.0 0.0 0.00 0.00 0.00 38 1013.7
20260504000057 13 24 0.0 1.6 0.00 0.00 0.00 37 1013.7
20260503235553 13 24 0.0 1.6 0.00 0.00 0.00 36 1013.6
20260503235053 14 24 0.0 6.4 0.00 0.00 0.00 35 1013.6
20260503234553 14 24 0.0 6.4 0.00 0.00 0.00 36 1013.5
20260503234052 15 300 0.0 3.2 0.00 0.00 0.00 35 1013.5
20260503233552 15 315 0.0 1.6 0.00 0.00 0.00 34 1013.5
20260503233052 15 309 0.0 1.6 0.00 0.00 0.00 34 1013.5
20260503232553 15 309 0.0 1.6 0.00 0.00 0.00 35 1013.4
20260503232052 15 98 0.0 3.2 0.00 0.00 0.00 35 1013.4
20260503231552 15 98 0.0 4.8 0.00 0.00 0.00 34 1013.4
20260503231052 15 360 0.0 4.8 0.00 0.00 0.00 34 1013.3
20260503230551 15 39 0.0 1.6 0.00 0.00 0.00 34 1013.3
20260503230108 15 305 0.0 6.4 0.00 0.00 0.00 32 1013.2
20260503225554 15 337 0.0 6.4 0.00 0.00 0.00 33 1013.2
20260503225051 16 316 0.0 4.8 0.00 0.00 0.00 33 1013.2
20260503224558 16 353 0.0 4.8 0.00 0.00 0.00 31 1013.2
20260503224050 16 319 0.0 9.7 0.00 0.00 0.00 31 1013.2
20260503223550 16 305 0.0 8.0 0.00 0.00 0.00 31 1013.2
20260503223050 16 258 0.0 8.0 0.00 0.00 0.00 31 1013.3
20260503222549 16 116 0.0 8.0 0.00 0.00 0.00 30 1013.3
20260503222051 16 283 0.0 8.0 0.00 0.00 0.00 30 1013.3
20260503221549 17 321 1.6 6.4 0.00 0.00 0.00 31 1013.3
20260503221049 17 338 0.0 4.8 0.00 0.00 0.00 29 1013.3
20260503220549 17 108 0.0 6.4 0.00 0.00 0.00 29 1013.4
20260503220049 17 314 1.6 6.4 0.00 0.00 0.00 27 1013.4
20260503215549 18 313 0.0 6.4 0.00 0.00 0.00 29 1013.4
20260503215048 18 155 0.0 6.4 0.00 0.00 0.00 29 1013.3
20260503214549 18 135 0.0 8.0 0.00 0.00 0.00 26 1013.3
20260503214046 18 313 0.0 8.0 0.00 0.00 0.00 29 1013.4
20260503213546 17 316 1.6 6.4 0.00 0.00 0.00 27 1013.4
20260503213046 17 323 0.0 6.4 0.00 0.00 0.00 27 1013.5
20260503212546 17 319 1.6 11.3 0.00 0.00 0.00 27 1013.5
20260503212046 17 286 4.8 11.3 0.00 0.00 0.00 26 1013.6
20260503211604 18 335 0.0 9.7 0.00 0.00 0.00 26 1013.6
20260503211045 18 348 0.0 9.7 0.00 0.00 0.00 27 1013.6
20260503210547 17 110 0.0 14.5 0.00 0.00 0.00 28 1013.6
20260503210045 17 326 1.6 14.5 0.00 0.00 0.00 27 1013.5
20260503205544 18 312 3.2 9.7 0.00 0.00 0.00 27 1013.5
20260503205044 18 321 1.6 4.8 0.00 0.00 0.00 26 1013.6
20260503204543 17 314 1.6 11.3 0.00 0.00 0.00 26 1013.7
20260503204043 18 98 3.2 11.3 0.00 0.00 0.00 27 1013.7
20260503203542 18 125 1.6 11.3 0.00 0.00 0.00 27 1013.7
20260503203047 18 84 0.0 8.0 0.00 0.00 0.00 27 1013.8
20260503202541 17 320 0.0 8.0 0.00 0.00 0.00 28 1013.7
20260503202041 18 340 1.6 4.8 0.00 0.00 0.00 28 1013.7
20260503201541 18 316 0.0 4.8 0.00 0.00 0.00 28 1013.8
20260503201044 18 126 0.0 6.4 0.00 0.00 0.00 29 1013.8
20260503200539 17 297 1.6 14.5 0.00 0.00 0.00 30 1014.0
20260503200053 17 326 1.6 14.5 0.00 0.00 0.00 30 1014.1
20260503195539 17 312 0.0 11.3 0.00 0.00 0.00 28 1014.2
20260503195038 17 312 3.2 11.3 0.00 0.00 0.00 32 1014.2
20260503194538 17 114 3.2 11.3 0.00 0.00 0.00 27 1014.3
20260503194037 17 55 3.2 11.3 0.00 0.00 0.00 29 1014.3
20260503193536 17 101 0.0 4.8 0.00 0.00 0.00 32 1014.4
20260503193037 16 94 0.0 11.3 0.00 0.00 0.00 32 1014.7
20260503192536 16 325 4.8 11.3 0.00 0.00 0.00 31 1014.7
20260503192034 17 330 4.8 14.5 0.00 0.00 0.00 29 1014.8
20260503191539 17 332 1.6 14.5 0.00 0.00 0.00 32 1014.9
20260503191034 17 109 1.6 8.0 0.00 0.00 0.00 31 1014.9
20260503190534 16 319 1.6 8.0 0.00 0.00 0.00 33 1015.0
20260503190034 16 328 0.0 9.7 0.00 0.00 0.00 30 1015.0
20260503185533 17 95 1.6 12.9 0.00 0.00 0.00 30 1015.2
20260503185033 17 112 4.8 12.9 0.00 0.00 0.00 31 1015.2
20260503184540 17 149 1.6 16.1 0.00 0.00 0.00 32 1015.3
20260503184031 16 110 4.8 16.1 0.00 0.00 0.00 31 1015.1
20260503183532 17 342 1.6 8.0 0.00 0.00 0.00 33 1015.4
20260503183030 16 335 0.0 9.7 0.00 0.00 0.00 34 1015.4
20260503182531 16 290 3.2 9.7 0.00 0.00 0.00 33 1015.4
20260503182032 16 129 0.0 8.0 0.00 0.00 0.00 35 1015.4
20260503181530 16 314 0.0 8.0 0.00 0.00 0.00 35 1015.4
20260503181031 17 99 1.6 8.0 0.00 0.00 0.00 30 1015.5
20260503180529 17 335 1.6 6.4 0.00 0.00 0.00 32 1015.5
20260503180043 16 87 0.0 8.0 0.00 0.00 0.00 34 1015.6
20260503175528 16 357 0.0 8.0 0.00 0.00 0.00 34 1015.5
20260503175027 16 87 0.0 9.7 0.00 0.00 0.00 33 1015.7
20260503174541 16 305 3.2 9.7 0.00 0.00 0.00 37 1015.8
20260503174025 16 295 1.6 8.0 0.00 0.00 0.00 32 1015.7
20260503173525 16 283 1.6 8.0 0.00 0.00 0.00 34 1015.8
20260503173034 15 317 1.6 16.1 0.00 0.00 0.00 36 1015.8
20260503172524 15 302 0.0 16.1 0.00 0.00 0.00 36 1015.8
20260503172027 15 70 0.0 16.1 0.00 0.00 0.00 34 1015.8
20260503171524 16 352 3.2 16.1 0.00 0.00 0.00 34 1015.7
20260503171022 15 118 0.0 11.3 0.00 0.00 0.00 35 1015.8
20260503170523 15 310 1.6 14.5 0.00 0.00 0.00 38 1016.0